FENGYUN 1C DEB, 31901

Orbit data source: Space-Track

FENGYUN 1C DEB, 31901 is space debris in SSO originally from a launch on Mon, 10 May 1999 UTC launched from the Taiyaun Space Center, China (TSC). Fengyun 1C debris stems from the Chinese weather satellite Fengyun-1C, which was intentionally destroyed by a Chinese anti-satellite missile in 2007. This event dramatically increased the amount of space debris, with thousands of trackable fragments posing hazards to satellites and human spaceflight. The Fengyun 1C debris cloud has become a focal point in discussions about space sustainability and the need for international regulations to prevent the creation of new debris.

Loading next visibility...
Identifier
31901, 1999-025CLC
Orbit
SSO
Country
Flag of CNCN / PRC
Related business
Manufacturer
Unknown
Mission
Spacecraft
Bus & Motor
Unknown
Mass
Unknown
Launch date (UTC)
1999-05-10 (27 years ago)
Launch vehicle
Unknown
Launch site
Taiyaun Space Center, China (TSC)
Object type
Payload
Rocket body
Debris
Shape & HBR
Unknown shape, 0.1 m
Radar Cross Section
Small (<0.1 m²)

Expand to show TLE details & history
Last TLE update: 4 days ago

TLE from 4 days ago
0 FENGYUN 1C DEB
1 31901U 99025CLC 26142.11177371  .00000093  00000-0  92463-4 0  9992
2 31901  98.6241  97.5197 0132582 105.7321 255.8510 13.94234438656424
Epoch: 2026-05-22T02:40Z
TLE epoch observation values (Epoch: 2026-05-22T02:40:57.248Z)
Latitude
-0.00005°
Longitude
177.53387°
Altitude
941.549 km
Speed
7.368 km/s
True Right ascension
06h 30m 04s
True Declination
0° 00' 00"
Sunlit
Object was in daylight at epoch
Visualization orbit readout
Latitude
Unknown
Longitude
Unknown
Altitude
Unknown
Speed
Unknown
Apparent Right ascension
Unknown
Apparent Declination
Unknown
Sunlit
N/A
Visualization observer readout
Local Sidereal Time
22:20:00
Azimuth
Unknown
Elevation
Unknown
Doppler factor
Unknown
Orbital elements
Apogee altitude
1,007.658 km
Perigee altitude
814.376 km
Semi-major axis
7,289.154 km
Eccentricity
0.01326
Inclination
98.6241°
RAAN
97.5197°
Arg. of periapsis
105.7321°
True anomaly
254.38392°
Mean anomaly
255.851°
Eccentric anomaly
255.11685°
Mean motion
3.48761 °/min
Orbital period
103.22 mins
BSTAR
0.000092463
Loading maneuver chart data...
Computing Atmospheric mass density...

Documentation

Showing up to 5 results
|